Location: Ferchesar
(52.6477°N, 12.4298°E)
Time: 05:17:04
(UTC+01:00)

Vanguard 1 Rocket - Pass Details

Date: 13 December 2021
Orbit: 651 x 4224 km, 34.3° (Epoch: 15 January)

Event Time Altitude Azimuth Distance (km) Brightness Sun altitude
Exits shadow 01:37:13 15° 120° (ESE) 4,378 10.8 -55.6°
Drops below altitude 10° 01:40:09 10° 112° (ESE) 5,163 11.3 -55.3°
Sets 01:46:23 0° 103° (ESE) 6,855 12.1 -54.7°
